Lancaster, CA

6:10 AM PDT on September 21, 2017 (GMT -0700)
Gen Fox

Weather History for KWJF - March, 2013

Change the Weather History Date:

Saturday, March 16, 2013

  Actual Average Record
Temperature  
Mean Temperature 69 °F 53 °F  
Max Temperature 80 °F 67 °F 90 °F (2007)
Min Temperature 57 °F 39 °F 24 °F (1956)
Degree Days  
Heating Degree Days 0    
Month to date heating degree days 157  
Since 1 July heating degree days 2529  
Cooling Degree Days 4    
Month to date cooling degree days 9  
Year to date cooling degree days 9  
Growing Degree Days 18 (Base 50)    
Moisture  
Dew Point 36 °F    
Average Humidity 36    
Maximum Humidity 55    
Minimum Humidity 16    
Precipitation  
Precipitation 0.00 in 0.04 in 0.63 in (1952)
Month to date precipitation 0.35 0.72  
Year to date precipitation 0.95 4.00  
Since 1 July precipitation 1.11  
Snow  
Snow 0.00 in - T in (1982)
Month to date snowfall 0.0  
Since 1 July snowfall 0.0  
Snow Depth -    
Sea Level Pressure  
Sea Level Pressure 29.93 in    
Wind  
Wind Speed 22 mph (West)    
Max Wind Speed 36 mph    
Max Gust Speed 43 mph    
Visibility 10 miles    
Events      
T = Trace of Precipitation, MM = Missing Value Source: NWS Daily Summary

Daily Weather History Graph

Daily Weather History Graph

Search for Another Location

Airport or City:

Trip Planner

Search our weather history database for the weather conditions in past years. The results will help you decide how hot, cold, wet, or windy it might be!

Date:

Astronomy

Mar. 16, 2013 Rise Set
Actual Time 7:01 AM PDT 7:01 PM PDT
Civil Twilight 6:36 AM PDT 7:26 PM PDT
Nautical Twilight 6:07 AM PDT 7:56 PM PDT
Astronomical Twilight 5:37 AM PDT 8:25 PM PDT
Moon 9:46 AM PDT (3/16) No Moon Set
Length of Visible Light 12h 50m
Length of Day
12h 00m
Waxing Crescent, 24% of the Moon is Illuminated
Mar 16
Waxing Crescent
Mar 19
First Quarter
Mar 27
Full
Apr 2
Last Quarter
Apr 10
New

Hourly Weather History & Observations

Time (PDT) Temp. Dew Point Humidity Pressure Visibility Wind Dir Wind Speed Gust Speed Precip Events Conditions
12:56 AM 62.1 °F 42.1 °F 48% 29.94 in 10.0 mi West 20.7 mph 26.5 mph N/A   Clear
1:56 AM 61.0 °F 45.0 °F 56% 29.92 in 10.0 mi West 25.3 mph 33.4 mph N/A   Clear
2:56 AM 60.1 °F 42.1 °F 51% 29.92 in 10.0 mi West 26.5 mph - N/A   Clear
3:56 AM 60.1 °F 37.0 °F 42% 29.92 in 10.0 mi West 19.6 mph - N/A   Clear
4:56 AM 60.1 °F 34.0 °F 38% 29.91 in 10.0 mi West 18.4 mph - N/A   Clear
5:56 AM 57.9 °F 37.0 °F 46% 29.94 in 10.0 mi West 18.4 mph - N/A   Clear
6:56 AM 57.0 °F 41.0 °F 55% 29.96 in 10.0 mi WNW 18.4 mph - N/A   Clear
7:56 AM 57.9 °F 41.0 °F 53% 29.97 in 10.0 mi West 12.7 mph - N/A   Clear
8:56 AM 62.1 °F 39.9 °F 44% 29.96 in 10.0 mi West 18.4 mph 28.8 mph N/A   Clear
9:56 AM 66.9 °F 37.9 °F 34% 29.96 in 10.0 mi West 23.0 mph 28.8 mph N/A   Clear
10:56 AM 73.0 °F 32.0 °F 22% 29.94 in 10.0 mi West 23.0 mph - N/A   Clear
11:56 AM 78.1 °F 28.0 °F 16% 29.94 in 10.0 mi WNW 17.3 mph 25.3 mph N/A   Clear
12:13 PM 78.8 °F 28.4 °F 16% 29.97 in 5.0 mi West 19.6 mph 26.5 mph N/A   Haze
12:56 PM 79.0 °F 30.9 °F 17% 29.93 in 10.0 mi WNW 19.6 mph - N/A   Clear
1:56 PM 79.0 °F 35.1 °F 20% 29.90 in 10.0 mi West 29.9 mph 36.8 mph N/A   Clear
2:56 PM 79.0 °F 32.0 °F 18% 29.88 in 10.0 mi West 28.8 mph 38.0 mph N/A   Clear
3:56 PM 75.0 °F 33.1 °F 22% 29.88 in 10.0 mi West 35.7 mph 41.4 mph N/A   Clear
4:56 PM 73.9 °F 34.0 °F 23% 29.88 in 10.0 mi WNW 28.8 mph 38.0 mph N/A   Clear
5:56 PM 70.0 °F 34.0 °F 27% 29.88 in 10.0 mi West 25.3 mph 38.0 mph N/A   Clear
6:56 PM 64.9 °F 37.9 °F 37% 29.91 in 10.0 mi West 23.0 mph 33.4 mph N/A   Clear
7:56 PM 63.0 °F 37.0 °F 38% 29.92 in 10.0 mi West 23.0 mph 31.1 mph N/A   Clear
8:56 PM 62.1 °F 37.0 °F 39% 29.95 in 10.0 mi WNW 10.4 mph - N/A   Partly Cloudy
9:56 PM 62.1 °F 36.0 °F 38% 29.96 in 10.0 mi West 18.4 mph - N/A   Partly Cloudy
10:56 PM 61.0 °F 37.0 °F 41% 29.94 in 10.0 mi West 16.1 mph - N/A   Clear
11:56 PM 64.0 °F 30.9 °F 29% 29.92 in 10.0 mi WNW 18.4 mph 26.5 mph N/A   Clear